Alexandria, LA

10:10 AM CST on February 07, 2016 (GMT -0600)
Alexandria International

Weather History for KAEX - December, 2013

Change the Weather History Date:

Sunday, December 8, 2013

  Actual Average Record
Temperature  
Mean Temperature 37 °F 51 °F  
Max Temperature 43 °F 61 °F 83 °F (2007)
Min Temperature 31 °F 41 °F 20 °F (1910)
Degree Days  
Heating Degree Days 28 14  
Month to date heating degree days 92 109  
Since 1 July heating degree days 468 434  
Moisture  
Dew Point 36 °F    
Average Humidity 85    
Maximum Humidity 93    
Minimum Humidity 76    
Precipitation  
Precipitation 0.01 in 0.24 in 3.36 in (1951)
Month to date precipitation 0.34 2.04  
Year to date precipitation 52.83 51.84  
Snow  
Snow 0.00 in - 0.00 in ()
Month to date snowfall 0.0  
Since 1 July snowfall 0.0  
Snow Depth 0.00 in    
Sea Level Pressure  
Sea Level Pressure 30.15 in    
Wind  
Wind Speed 3 mph (North)    
Max Wind Speed 8 mph    
Max Gust Speed 12 mph    
Visibility 8 miles    
Events Rain    
T = Trace of Precipitation, MM = Missing Value Source: NWS Daily Summary

Daily Weather History Graph

Daily Weather History Graph

Search for Another Location

Airport or City:

Trip Planner

Search our weather history database for the weather conditions in past years. The results will help you decide how hot, cold, wet, or windy it might be!

Date:

Astronomy

Dec. 08, 2013 Rise Set
Actual Time 6:57 AM CST 5:07 PM CST
Civil Twilight 6:30 AM CST 5:34 PM CST
Nautical Twilight 6:00 AM CST 6:04 PM CST
Astronomical Twilight 5:30 AM CST 6:33 PM CST
Moon 11:35 AM CST (12/8) 11:37 PM CST (12/8)
Length of Visible Light 11h 03m
Length of Day
10h 10m
Waxing Crescent, 40% of the Moon is Illuminated
Dec 8
Waxing Crescent
Dec 9
First Quarter
Dec 17
Full
Dec 25
Last Quarter
Jan 1
New

Hourly Weather History & Observations

Time (CST) Temp. Windchill Dew Point Humidity Pressure Visibility Wind Dir Wind Speed Gust Speed Precip Events Conditions
12:53 AM 32.0 °F 26.4 °F 28.9 °F 88% 30.28 in 8.0 mi NNE 5.8 mph - N/A   Overcast
1:53 AM 30.9 °F 26.2 °F 28.9 °F 92% 30.25 in 8.0 mi NE 4.6 mph - N/A   Overcast
2:53 AM 32.0 °F - 28.9 °F 88% 30.25 in 8.0 mi Calm Calm - N/A   Overcast
3:53 AM 32.0 °F 27.5 °F 28.9 °F 88% 30.23 in 8.0 mi NNE 4.6 mph - N/A   Overcast
4:53 AM 32.0 °F 28.7 °F 30.0 °F 92% 30.19 in 8.0 mi ENE 3.5 mph - N/A   Overcast
5:53 AM 33.1 °F - 30.0 °F 89% 30.21 in 9.0 mi Calm Calm - 0.00 in   Overcast
6:53 AM 33.1 °F 28.7 °F 30.0 °F 89% 30.21 in 8.0 mi North 4.6 mph - N/A   Overcast
7:53 AM 34.0 °F - 30.0 °F 85% 30.23 in 8.0 mi Calm Calm - N/A   Overcast
8:53 AM 35.1 °F 32.2 °F 30.9 °F 85% 30.21 in 9.0 mi North 3.5 mph - N/A   Overcast
9:53 AM 36.0 °F 31.1 °F 32.0 °F 86% 30.19 in 9.0 mi NE 5.8 mph - 0.00 in   Overcast
10:01 AM 35.6 °F - 32.0 °F 87% 30.17 in 9.0 mi Calm Calm - N/A   Overcast
10:53 AM 37.9 °F - 33.1 °F 83% 30.20 in 10.0 mi Calm Calm - N/A   Overcast
11:53 AM 37.9 °F - 33.1 °F 83% 30.17 in 7.0 mi Calm Calm - 0.00 in Rain Light Rain
12:53 PM 39.9 °F - 36.0 °F 86% 30.14 in 10.0 mi Calm Calm - 0.00 in   Overcast
1:05 PM 39.2 °F - 35.6 °F 87% 30.12 in 10.0 mi Calm Calm - N/A   Overcast
1:18 PM 39.2 °F 37.0 °F 35.6 °F 87% 30.11 in 10.0 mi NNW 3.5 mph - N/A   Overcast
1:53 PM 41.0 °F 39.0 °F 36.0 °F 82% 30.11 in 10.0 mi NNW 3.5 mph - 0.01 in   Overcast
2:53 PM 43.0 °F 40.3 °F 36.0 °F 76% 30.10 in 10.0 mi North 4.6 mph - N/A   Overcast
3:53 PM 43.0 °F 41.3 °F 37.0 °F 80% 30.09 in 10.0 mi North 3.5 mph - N/A   Overcast
4:53 PM 42.1 °F 40.2 °F 39.0 °F 89% 30.10 in 3.0 mi NNE 3.5 mph - N/A   Overcast
5:08 PM 42.8 °F 41.1 °F 39.2 °F 87% 30.08 in 4.0 mi North 3.5 mph - N/A   Overcast
5:20 PM 41.0 °F 38.0 °F 39.2 °F 93% 30.08 in 4.0 mi North 4.6 mph - N/A   Overcast
5:51 PM 41.0 °F - 39.2 °F 93% 30.09 in 4.0 mi Calm Calm - N/A   Overcast
5:53 PM 41.0 °F 39.0 °F 39.9 °F 96% 30.11 in 4.0 mi NNW 3.5 mph - N/A   Overcast
6:53 PM 41.0 °F 38.0 °F 39.9 °F 96% 30.11 in 7.0 mi North 4.6 mph - 0.00 in   Overcast
7:09 PM 42.8 °F 41.1 °F 39.2 °F 87% 30.10 in 8.0 mi North 3.5 mph - N/A   Overcast
7:53 PM 42.1 °F 39.2 °F 39.9 °F 92% 30.15 in 8.0 mi NW 4.6 mph - N/A   Overcast
8:41 PM 42.8 °F 41.1 °F 39.2 °F 87% 30.12 in 9.0 mi NNE 3.5 mph - N/A   Overcast
8:53 PM 42.1 °F 40.2 °F 39.9 °F 92% 30.14 in 9.0 mi Variable 3.5 mph - N/A   Overcast
9:24 PM 42.8 °F - 39.2 °F 87% 30.12 in 9.0 mi Calm Calm - N/A   Overcast
9:41 PM 42.8 °F 41.1 °F 39.2 °F 87% 30.12 in 10.0 mi North 3.5 mph - N/A   Overcast
9:46 PM 42.8 °F - 39.2 °F 87% 30.13 in 10.0 mi Calm Calm - N/A   Overcast
9:53 PM 42.1 °F 40.2 °F 39.9 °F 92% 30.14 in 9.0 mi NNE 3.5 mph - N/A   Overcast
10:04 PM 42.8 °F 40.1 °F 39.2 °F 87% 30.12 in 9.0 mi North 4.6 mph - N/A   Overcast
10:38 PM 42.8 °F 40.1 °F 39.2 °F 87% 30.13 in 9.0 mi North 4.6 mph - N/A   Overcast
10:53 PM 42.1 °F - 39.9 °F 92% 30.16 in 9.0 mi Calm Calm - N/A   Overcast
11:53 PM 42.1 °F 39.2 °F 39.9 °F 92% 30.15 in 9.0 mi NNW 4.6 mph - N/A   Overcast